Location: Brachbach
(49.1847°N, 9.7240°E)
Time: 13:32:41
(UTC+00:00)

COSMOS 860 DEB - Visible Passes

Search period start: 03 October 2024 00:00
Search period end: 13 October 2024 00:00
Orbit: 892 x 986 km, 64.7° (Epoch: 01 October)

Date Brightness Start Highest point End Pass type
(mag) Time Alt. Az. Time Alt. Az. Time Alt. Az.
03 Oct ? 18:34:42 10° NW 18:39:41 23° NNE 18:43:03 16° ENE visible
03 Oct ? 20:21:50 10° NW 20:26:54 48° N 20:26:54 48° N visible
03 Oct ? 22:09:07 10° NW 22:10:46 18° WNW 22:10:46 18° WNW visible
04 Oct ? 18:49:20 10° NNW 18:54:42 28° NNE 18:57:03 22° ENE visible
04 Oct ? 20:36:20 10° NW 20:40:54 49° NNW 20:40:54 49° NNW visible
04 Oct ? 22:24:02 10° WNW 22:24:46 13° WNW 22:24:46 13° WNW visible
05 Oct ? 17:16:10 10° NW 17:20:41 20° N 17:25:14 10° NE visible
05 Oct ? 19:03:52 10° NNW 19:09:38 34° NNE 19:11:05 31° ENE visible
05 Oct ? 20:50:52 10° NW 20:54:56 42° NW 20:54:56 42° NW visible
06 Oct ? 17:31:03 10° NW 17:35:48 21° NNE 17:40:36 10° ENE visible
06 Oct ? 19:18:22 10° NW 19:24:28 44° NE 19:25:08 43° NE visible
06 Oct ? 21:05:29 10° NW 21:09:00 33° WNW 21:09:00 33° WNW visible
07 Oct ? 17:45:46 10° NNW 17:50:52 24° NNE 17:55:22 12° ENE visible
07 Oct ? 19:32:51 10° NW 19:39:10 60° NE 19:39:13 60° NE visible
07 Oct ? 21:20:14 10° NW 21:23:05 24° WNW 21:23:05 24° WNW visible
08 Oct ? 18:00:22 10° NNW 18:05:51 29° NNE 18:09:29 18° ENE visible
08 Oct ? 19:47:21 10° NW 19:53:21 77° N 19:53:21 77° N visible
08 Oct ? 21:35:14 10° WNW 21:37:13 17° WNW 21:37:13 17° WNW visible
09 Oct ? 18:14:53 10° NNW 18:20:44 37° NNE 18:23:39 25° E visible
09 Oct ? 20:01:54 10° NW 20:07:32 64° W 20:07:32 64° W visible
09 Oct ? 21:50:47 10° WNW 21:51:24 11° WNW 21:51:24 11° WNW visible
10 Oct ? 18:29:21 10° NW 18:35:32 48° NE 18:37:53 34° E visible
10 Oct ? 20:16:32 10° NW 20:21:45 45° W 20:21:45 45° W visible
11 Oct ? 18:43:50 10° NW 18:50:13 65° NE 18:52:09 45° ESE visible
11 Oct ? 20:31:20 10° NW 20:36:02 31° W 20:36:02 31° W visible
12 Oct ? 17:11:22 10° NNW 17:16:58 31° NNE 17:22:37 10° E visible
12 Oct ? 18:58:20 10° NW 19:04:47 90° ENE 19:06:31 52° SE visible
12 Oct ? 20:46:26 10° WNW 20:50:23 21° W 20:50:23 21° W visible
